N540HA LFMD-LFMD

Flight info

Callsign N540HA
Flight time N/A
Altitude 2000
Route VFR
Aircraft L1P/L-V/N

Departure

Time 2026-04-24 14:30
Airport Cannes Mandelieu Airport (LFMD)

Arrival

Time N/A
Airport Cannes Mandelieu Airport (LFMD)
Time Latitude Longitude Altitude Speed Heading
2026-04-24 14:21 43.54665 6.95550 15 ft 0 kts 45°
2026-04-24 14:24 43.54672 6.95560 15 ft 0 kts 53°
2026-04-24 14:25 43.54700 6.95651 15 ft 0 kts 181°
2026-04-24 14:25 43.54665 6.95550 15 ft 0 kts 45°
2026-04-24 14:26 43.54666 6.95551 15 ft 0 kts 45°
2026-04-24 14:27 43.54678 6.95571 15 ft 4 kts 116°
2026-04-24 14:27 43.54646 6.95594 15 ft 9 kts 242°
2026-04-24 14:27 43.54616 6.95547 15 ft 8 kts 226°
2026-04-24 14:27 43.54592 6.95513 15 ft 10 kts 224°
2026-04-24 14:28 43.54553 6.95517 15 ft 7 kts 181°
2026-04-24 14:28 43.54497 6.95451 15 ft 9 kts 224°
2026-04-24 14:28 43.54432 6.95361 16 ft 13 kts 237°
2026-04-24 14:28 43.54555 6.95298 15 ft 36 kts 352°
2026-04-24 14:29 43.54772 6.95255 15 ft 28 kts 353°
2026-04-24 14:29 43.54954 6.95226 15 ft 19 kts 352°
2026-04-24 14:29 43.54999 6.95137 14 ft 11 kts 266°
2026-04-24 14:29 43.54987 6.95051 13 ft 10 kts 174°
2026-04-24 14:30 43.54700 6.95104 103 ft 105 kts 174°
2026-04-24 14:30 43.53520 6.95261 672 ft 164 kts 180°
2026-04-24 14:30 43.52281 6.95448 951 ft 185 kts 175°
2026-04-24 14:30 43.50962 6.95821 960 ft 205 kts 167°
2026-04-24 14:31 43.49866 6.96265 1764 ft 133 kts 170°
2026-04-24 14:31 43.48973 6.96161 1591 ft 134 kts 206°
2026-04-24 14:31 43.48013 6.95526 1258 ft 183 kts 211°
2026-04-24 14:31 43.46903 6.94523 713 ft 208 kts 210°
2026-04-24 14:32 43.45633 6.94036 676 ft 60 kts 313°
2026-04-24 14:32 43.44945 6.93920 398 ft 163 kts 282°
2026-04-24 14:32 43.45412 6.92923 455 ft 160 kts 212°
2026-04-24 14:32 43.44210 6.92609 850 ft 165 kts 185°
2026-04-24 14:33 43.43891 6.91149 217 ft 184 kts 217°
2026-04-24 14:33 43.43239 6.90233 513 ft 103 kts 240°
2026-04-24 14:33 43.42902 6.89873 86 ft 113 kts 194°
2026-04-24 14:33 43.42261 6.89591 30 ft 73 kts 214°
2026-04-24 14:34 43.41690 6.88938 580 ft 130 kts 197°
2026-04-24 14:34 43.40935 6.88192 960 ft 105 kts 239°
2026-04-24 14:34 43.40928 6.87613 515 ft 99 kts 308°
2026-04-24 14:34 43.41619 6.87576 742 ft 140 kts 97°
2026-04-24 14:35 43.41332 6.89317 359 ft 198 kts 100°
2026-04-24 14:35 43.40609 6.89325 1567 ft 86 kts 331°